Weather History for Mombasa, Kenya

Change the Weather History Date:

Thursday, November 1, 2012

  Actual Average Record
Temperature  
Mean Temperature 80 °F -  
Max Temperature 88 °F 89 °F 88 °F (2012)
Min Temperature 72 °F 72 °F 71 °F (1999)
Cooling Degree Days 15    
Growing Degree Days 30 (Base 50)    
Moisture  
Dew Point 72 °F    
Average Humidity 73    
Maximum Humidity 94    
Minimum Humidity 51    
Precipitation  
Precipitation 0.00 in 0.14 in - ()
Sea Level Pressure  
Sea Level Pressure 29.86 in    
Wind  
Wind Speed 4 mph ()    
Max Wind Speed 17 mph    
Max Gust Speed -    
Visibility 8.3 miles    
Events      
Averages and records for this station are not official NWS values.
T = Trace of Precipitation, MM = Missing Value Source: Averaged Metar Reports

Daily Weather History Graph

Daily Weather History Graph

Search for Another Location

Airport:

Trip Planner

Search our weather history database for the weather conditions in past years. The results will help you decide how hot, cold, wet, or windy it might be!

Date:

Astronomy

Nov. 01, 2012 Rise Set
Actual Time 5:57 AM EAT 6:12 PM EAT
Civil Twilight 5:36 AM EAT 6:34 PM EAT
Nautical Twilight 5:11 AM EAT 6:59 PM EAT
Astronomical Twilight 4:45 AM EAT 7:24 PM EAT
Moon 8:21 PM EAT (11/1) 7:44 AM EAT (11/1)
Length of Visible Light 12h 58m
Length of Day
12h 15m
Waning Gibbous, 94% of the Moon is Illuminated
Nov 1
Waning Gibbous
Nov 7
Last Quarter
Nov 14
New
Nov 20
First Quarter
Nov 28
Full

Hourly Weather History & Observations

Time (EAT) Temp. Heat Index Dew Point Humidity Pressure Visibility Wind Dir Wind Speed Gust Speed Precip Events Conditions
12:30 AM 78.8 °F - 71.6 °F 78% 29.86 in 6.2 mi Calm Calm - N/A   Scattered Clouds
1:30 AM 78.8 °F - 71.6 °F 78% 29.83 in 6.2 mi Calm Calm - N/A   Partly Cloudy
3:00 AM 77 °F - 72 °F 81% 29.84 in 19 mi Calm Calm - -   Scattered Clouds
3:00 AM 77.0 °F - 71.6 °F 83% 29.83 in 6.2 mi Calm Calm - N/A   Partly Cloudy
5:00 AM 75.2 °F - 71.6 °F 89% 29.86 in 6.2 mi Calm Calm - N/A   Partly Cloudy
6:00 AM 73.4 °F - 71.6 °F 94% 29.86 in 6.2 mi Calm Calm - N/A   Partly Cloudy
6:30 AM 73.4 °F - 71.6 °F 94% 29.86 in 6.2 mi Calm Calm - N/A   Partly Cloudy
8:00 AM 78.8 °F - 71.6 °F 78% 29.92 in 6.2 mi NW 5.8 mph - N/A   Scattered Clouds
9:00 AM 81 °F - 72 °F 69% 29.93 in 19 mi North 4.6 mph - -   Mostly Cloudy
10:00 AM 82.4 °F 87.2 °F 71.6 °F 70% 29.92 in 6.2 mi Calm Calm - N/A   Mostly Cloudy
11:00 AM 86.0 °F 91.8 °F 71.6 °F 62% 29.92 in 6.2 mi East 3.5 mph - N/A   Mostly Cloudy
12:00 PM 87.8 °F 92.6 °F 69.8 °F 55% 29.89 in 6.2 mi ESE 5.8 mph - N/A   Mostly Cloudy
1:00 PM 87.8 °F 92.6 °F 69.8 °F 55% 29.86 in 6.2 mi East 8.1 mph - N/A   Scattered Clouds
2:00 PM 87.8 °F 92.6 °F 69.8 °F 55% 29.80 in 6.2 mi East 13.8 mph - N/A   Partly Cloudy
3:00 PM 86 °F - 71 °F 51% 29.79 in 19 mi ESE 12.7 mph - -   Scattered Clouds
3:00 PM 86.0 °F 90.4 °F 69.8 °F 58% 29.80 in 6.2 mi ESE 17.3 mph - N/A   Partly Cloudy
4:00 PM 86.0 °F 91.8 °F 71.6 °F 62% 29.77 in 6.2 mi East 11.5 mph - N/A   Partly Cloudy
5:00 PM 82.4 °F 87.2 °F 71.6 °F 70% 29.77 in 6.2 mi ESE 13.8 mph - N/A   Partly Cloudy
6:00 PM 82.4 °F 87.2 °F 71.6 °F 70% 29.80 in 6.2 mi ESE 11.5 mph - N/A   Partly Cloudy
7:00 PM 80.6 °F 85.4 °F 73.4 °F 79% 29.83 in 6.2 mi ESE 6.9 mph - N/A   Partly Cloudy
9:00 PM 81 °F - 74 °F 74% 29.89 in 19 mi East 8.1 mph - -   Partly Cloudy
9:00 PM 80.6 °F 85.4 °F 73.4 °F 79% 29.89 in 6.2 mi East 8.1 mph - N/A   Scattered Clouds
10:00 PM 80.6 °F 85.4 °F 73.4 °F 79% 29.92 in 6.2 mi ESE 5.8 mph - N/A   Partly Cloudy
11:00 PM 80.6 °F 85.4 °F 73.4 °F 79% 29.92 in 6.2 mi SE 4.6 mph - N/A   Mostly Cloudy